{"data":{"norad_id":53004,"intl_designator":"2022-076U","name":"STARLINK-4253","alt_names":[],"object_type":"PAYLOAD","status":"ACTIVE","operator":null,"country":"US","launch_date":"2022-07-07","launch_site_code":"AFETR","launch_vehicle":null,"mission":null,"orbit_class":"UNKNOWN","rcs_meters":null,"size_class":null,"mass_kg":null,"dimensions":null,"purposes":["comms"],"wikipedia_slug":null,"has_3d_model":false,"image_url":null,"decayed_at":null,"tle_current":{"epoch":"2026-09-19T19:53:41.447616Z","epoch_age_seconds":127697,"freshness":"FRESH","line1":"1 53004U 22076U   26262.82895194  .00000152  00000+0  16658-4 0  9990","line2":"2 53004  53.1602 294.9445 0001265  83.0881 277.0264 15.31701293232254","mean_motion":15.31701293,"eccentricity":0.0001265,"inclination_deg":53.1602,"raan_deg":294.9445,"arg_perigee_deg":83.0881,"mean_anomaly_deg":277.0264,"bstar":1.6658e-5,"rev_number":23225,"period_min":94.013108598975,"perigee_km":469.86975841032,"apogee_km":471.60252331496,"semimajor_km":6848.8731408626,"source":"CELESTRAK","updated_at":"2026-09-20T09:00:40.142231Z"}}}